Tiempo cada hora Aliseda

Hoy, 27 Julio, Martes

Tiempo Temperatura Precipitaciones Viento Presión Humedad
00:00 +21°C° 0 mm 2 mps 722 mmHg 52%
01:00 +22°C° 0 mm 1 mps 722 mmHg 53%
02:00 +21°C° 0 mm 1 mps 722 mmHg 55%
03:00 +19°C° 0 mm 0 mps 722 mmHg 57%
04:00 +18°C° 0 mm 0 mps 722 mmHg 57%
05:00 +18°C° 0 mm 0 mps 722 mmHg 58%
06:00 +18°C° 0 mm 0 mps 722 mmHg 59%
07:00 +23°C° 0 mm 1 mps 722 mmHg 51%
08:00 +26°C° 0 mm 1 mps 722 mmHg 43%
09:00 +28°C° 0 mm 1 mps 723 mmHg 35%
10:00 +30°C° 0 mm 2 mps 722 mmHg 31%
11:00 +32°C° 0 mm 2 mps 722 mmHg 27%
12:00 +35°C° 0 mm 3 mps 722 mmHg 23%
13:00 +36°C° 0 mm 3 mps 722 mmHg 21%
14:00 +37°C° 0 mm 4 mps 721 mmHg 19%
15:00 +37°C° 0 mm 4 mps 721 mmHg 17%
16:00 +37°C° 0 mm 4 mps 720 mmHg 17%
17:00 +37°C° 0 mm 4 mps 720 mmHg 17%
18:00 +36°C° 0 mm 4 mps 720 mmHg 17%
19:00 +33°C° 0 mm 4 mps 720 mmHg 24%
20:00 +29°C° 0 mm 4 mps 720 mmHg 31%
21:00 +25°C° 0 mm 4 mps 720 mmHg 38%
22:00 +24°C° 0 mm 3 mps 720 mmHg 43%
23:00 +21°C° 0 mm 2 mps 720 mmHg 48%

Mañana, 28 Julio, Miércoles

Tiempo Temperatura Precipitaciones Viento Presión Humedad
00:00 +20°C° 0 mm 2 mps 720 mmHg 54%
01:00 +20°C° 0 mm 1 mps 720 mmHg 56%
02:00 +20°C° 0 mm 1 mps 720 mmHg 59%
03:00 +19°C° 0 mm 1 mps 719 mmHg 62%
04:00 +19°C° 0 mm 1 mps 720 mmHg 63%
05:00 +19°C° 0 mm 1 mps 720 mmHg 63%
06:00 +19°C° 0 mm 1 mps 720 mmHg 64%
07:00 +22°C° 0 mm 1 mps 720 mmHg 56%
08:00 +22°C° 0 mm 0 mps 721 mmHg 47%
09:00 +25°C° 0 mm 0 mps 721 mmHg 38%
10:00 +29°C° 0 mm 1 mps 721 mmHg 33%
11:00 +32°C° 0 mm 1 mps 721 mmHg 28%
12:00 +34°C° 0 mm 1 mps 721 mmHg 22%
13:00 +36°C° 0 mm 2 mps 721 mmHg 20%
14:00 +37°C° 0 mm 2 mps 720 mmHg 18%
15:00 +38°C° 0 mm 3 mps 720 mmHg 15%
16:00 +38°C° 0 mm 3 mps 720 mmHg 15%
17:00 +37°C° 0 mm 3 mps 720 mmHg 15%
18:00 +37°C° 0 mm 3 mps 720 mmHg 15%
19:00 +34°C° 0 mm 3 mps 720 mmHg 22%
20:00 +30°C° 0 mm 3 mps 720 mmHg 29%
21:00 +26°C° 0 mm 3 mps 720 mmHg 37%
22:00 +25°C° 0 mm 2 mps 720 mmHg 42%
23:00 +24°C° 0 mm 2 mps 720 mmHg 47%

Pasado mañana, 29 Julio, Jueves

Tiempo Temperatura Precipitaciones Viento Presión Humedad
00:00 +22°C° 0 mm 1 mps 720 mmHg 52%
01:00 +22°C° 0 mm 1 mps 720 mmHg 54%
02:00 +21°C° 0 mm 1 mps 720 mmHg 57%
03:00 +20°C° 0 mm 1 mps 720 mmHg 60%
04:00 +19°C° 0 mm 1 mps 720 mmHg 62%
05:00 +19°C° 0 mm 1 mps 720 mmHg 65%
06:00 +18°C° 0 mm 1 mps 720 mmHg 67%
07:00 +21°C° 0 mm 1 mps 721 mmHg 57%
08:00 +24°C° 0 mm 2 mps 721 mmHg 47%
09:00 +26°C° 0 mm 2 mps 722 mmHg 37%
10:00 +29°C° 0 mm 3 mps 722 mmHg 31%
11:00 +31°C° 0 mm 3 mps 722 mmHg 25%
12:00 +34°C° 0 mm 4 mps 722 mmHg 20%
13:00 +35°C° 0 mm 4 mps 722 mmHg 18%
14:00 +36°C° 0 mm 4 mps 721 mmHg 16%
15:00 +37°C° 0 mm 4 mps 721 mmHg 15%
16:00 +37°C° 0 mm 5 mps 721 mmHg 16%
17:00 +36°C° 0 mm 5 mps 721 mmHg 17%
18:00 +35°C° 0 mm 5 mps 721 mmHg 18%
19:00 +32°C° 0 mm 4 mps 721 mmHg 25%
20:00 +28°C° 0 mm 4 mps 721 mmHg 31%
21:00 +25°C° 0 mm 3 mps 721 mmHg 38%
22:00 +22°C° 0 mm 3 mps 721 mmHg 43%
23:00 +20°C° 0 mm 2 mps 721 mmHg 49%

30 Julio, Viernes

Tiempo Temperatura Precipitaciones Viento Presión Humedad
00:00 +19°C° 0 mm 1 mps 721 mmHg 54%
01:00 +18°C° 0 mm 1 mps 721 mmHg 58%
02:00 +16°C° 0 mm 1 mps 721 mmHg 62%
03:00 +16°C° 0 mm 1 mps 721 mmHg 66%
04:00 +16°C° 0 mm 1 mps 721 mmHg 66%
05:00 +16°C° 0 mm 1 mps 721 mmHg 66%
06:00 +16°C° 0 mm 1 mps 722 mmHg 66%
07:00 +20°C° 0 mm 1 mps 722 mmHg 56%
08:00 +23°C° 0 mm 1 mps 723 mmHg 45%
09:00 +27°C° 0 mm 2 mps 723 mmHg 34%
10:00 +29°C° 0 mm 2 mps 723 mmHg 29%
11:00 +31°C° 0 mm 3 mps 723 mmHg 24%
12:00 +35°C° 0 mm 3 mps 723 mmHg 19%
13:00 +36°C° 0 mm 4 mps 723 mmHg 18%
14:00 +36°C° 0 mm 4 mps 722 mmHg 16%
15:00 +37°C° 0 mm 5 mps 722 mmHg 15%
16:00 +36°C° 0 mm 5 mps 722 mmHg 16%
17:00 +35°C° 0 mm 6 mps 722 mmHg 18%
18:00 +34°C° 0 mm 6 mps 722 mmHg 19%
19:00 +30°C° 0 mm 6 mps 722 mmHg 27%
20:00 +27°C° 0 mm 5 mps 722 mmHg 35%
21:00 +23°C° 0 mm 4 mps 722 mmHg 43%
22:00 +21°C° 0 mm 4 mps 722 mmHg 50%
23:00 +19°C° 0 mm 3 mps 722 mmHg 57%

31 Julio, Sábado

Tiempo Temperatura Precipitaciones Viento Presión Humedad
00:00 +18°C° 0 mm 2 mps 722 mmHg 64%
01:00 +17°C° 0 mm 2 mps 722 mmHg 68%
02:00 +16°C° 0 mm 2 mps 721 mmHg 71%
03:00 +15°C° 0 mm 2 mps 721 mmHg 75%
04:00 +15°C° 0 mm 2 mps 721 mmHg 76%
05:00 +15°C° 0 mm 2 mps 722 mmHg 77%
06:00 +15°C° 0 mm 2 mps 722 mmHg 78%
07:00 +17°C° 0 mm 2 mps 722 mmHg 68%
08:00 +20°C° 0 mm 3 mps 723 mmHg 58%
09:00 +22°C° 0 mm 4 mps 723 mmHg 47%
10:00 +26°C° 0 mm 4 mps 723 mmHg 39%
11:00 +28°C° 0 mm 4 mps 723 mmHg 31%
12:00 +30°C° 0 mm 4 mps 723 mmHg 24%
13:00 +32°C° 0 mm 5 mps 723 mmHg 21%
14:00 +33°C° 0 mm 5 mps 723 mmHg 18%
15:00 +34°C° 0 mm 5 mps 722 mmHg 15%
16:00 +34°C° 0 mm 5 mps 722 mmHg 15%
17:00 +33°C° 0 mm 5 mps 722 mmHg 15%
18:00 +33°C° 0 mm 5 mps 722 mmHg 15%
19:00 +29°C° 0 mm 4 mps 722 mmHg 21%
20:00 +26°C° 0 mm 4 mps 723 mmHg 26%
21:00 +24°C° 0 mm 3 mps 723 mmHg 32%
22:00 +22°C° 0 mm 3 mps 723 mmHg 36%
23:00 +21°C° 0 mm 3 mps 723 mmHg 40%

1 Agosto, Domingo

Tiempo Temperatura Precipitaciones Viento Presión Humedad
00:00 +20°C° 0 mm 2 mps 723 mmHg 44%
01:00 +19°C° 0 mm 2 mps 723 mmHg 49%
02:00 +18°C° 0 mm 2 mps 723 mmHg 53%
03:00 +17°C° 0 mm 2 mps 722 mmHg 57%
04:00 +17°C° 0 mm 2 mps 722 mmHg 58%
05:00 +17°C° 0 mm 2 mps 723 mmHg 59%
06:00 +16°C° 0 mm 2 mps 723 mmHg 60%
07:00 +19°C° 0 mm 2 mps 723 mmHg 50%
08:00 +23°C° 0 mm 2 mps 723 mmHg 40%
09:00 +26°C° 0 mm 2 mps 723 mmHg 31%
10:00 +28°C° 0 mm 2 mps 723 mmHg 27%
11:00 +30°C° 0 mm 2 mps 723 mmHg 23%
12:00 +32°C° 0 mm 2 mps 723 mmHg 19%
13:00 +34°C° 0 mm 3 mps 723 mmHg 17%
14:00 +34°C° 0 mm 3 mps 722 mmHg 16%
15:00 +35°C° 0 mm 4 mps 722 mmHg 14%
16:00 +35°C° 0 mm 4 mps 722 mmHg 14%
17:00 +34°C° 0 mm 4 mps 721 mmHg 14%
18:00 +34°C° 0 mm 4 mps 721 mmHg 15%
19:00 +30°C° 0 mm 4 mps 721 mmHg 19%
20:00 +27°C° 0 mm 4 mps 721 mmHg 24%
21:00 +24°C° 0 mm 3 mps 722 mmHg 28%
22:00 +21°C° 0 mm 3 mps 722 mmHg 31%
23:00 +20°C° 0 mm 2 mps 722 mmHg 34%
Mostrar más

Necesitamos Su Consentimiento

Meteoprog y nuestros Proveedores de Servicios pueden almacenar y acceder a sus datos personales como cookies, identificadores de dispositivo u otras tecnologías similares de su dispositivo y procesar dichos datos para personalizar contenido y anuncios, además de ofrecer funciones de redes sociales y analizar el tráfico.

  • Almacenar y/o acceder a información en su dispositivo

    Se puede almacenar o acceder a cookies, identificadores de dispositivo u otra información de su dispositivo para los fines anteriormente indicados.

  • Anuncios y contenido personalizados, medición de anuncios y contenido, percepciones del público, y desarrollo de productos

    Los anuncios y el contenido pueden personalizarse en base a su perfil. Se pueden añadir más datos para personalizar mejor los anuncios y contenidos. Se puede medir el rendimiento de los anuncios y contenidos. Se puede obtener la percepción sobre el público que ha visto los anuncios y contenidos. Dichos datos pueden usarse para desarrollar o mejorar la experiencia del usuario, sistemas y software.

Al hacer clic en ‘Estoy De Acuerdo’ usted permitirá el uso de las cookies, identificadores de dispositivo, balizas web u otras tecnologías similares indicadas. Su configuración puede cambiarse desde el navegador de su dispositivo.

Para ciertos fines, los intereses legítimos pueden ser considerados por encima del consentimiento. Puede leer más sobre ello en nuestra Política de Privacidad y Cookies.